Location: Unspecified
(0.0000°N, 0.0000°E)
Time: 15:28:23
(UTC+00:00)

Vanguard 3 - Visible Passes

Search period start: 17 April 2014 00:00
Search period end: 27 April 2014 00:00
Orbit: 507 x 3281 km, 33.4° (Epoch: 16 April)

Date Brightness Start Highest point End Pass type
(mag) Time Alt. Az. Time Alt. Az. Time Alt. Az.
17 Apr 10.2 02:42:09 33° SSE 02:44:57 35° SE 03:00:58 10° E visible
17 Apr 10.0 04:46:57 16° SW 05:01:17 87° SE 05:21:42 10° NE visible
17 Apr 9.0 18:42:22 10° SW 18:43:08 11° SW 18:43:54 10° SSW visible
18 Apr 10.9 01:34:53 18° SE 01:34:53 18° SE 01:41:32 10° ESE visible
18 Apr 9.9 03:39:41 37° SSW 03:46:51 62° SE 04:06:21 10° ENE visible
19 Apr 10.0 02:32:24 40° SE 02:33:06 40° SE 02:49:29 10° ENE visible
19 Apr 9.9 04:37:11 22° WSW 04:49:04 83° NW 05:09:30 10° NE visible
20 Apr 10.9 01:25:05 19° ESE 01:25:05 19° ESE 01:30:45 10° E visible
20 Apr 9.5 03:29:53 51° SSW 03:34:43 71° SE 03:54:16 10° ENE visible
21 Apr 9.9 02:22:32 45° SE 02:22:32 45° SE 02:37:44 10° ENE visible
21 Apr 9.8 04:27:19 29° WSW 04:36:57 73° NW 04:57:07 10° NE visible
22 Apr 10.9 01:15:09 18° ESE 01:15:09 18° ESE 01:19:41 10° E visible
22 Apr 9.2 03:19:56 67° SSW 03:22:40 82° SE 03:41:59 10° ENE visible
22 Apr 10.4 05:25:05 10° W 05:40:05 46° NNW 05:58:53 10° NE visible
23 Apr 9.9 02:12:30 47° ESE 02:12:30 47° ESE 02:25:47 10° ENE visible
23 Apr 9.7 04:17:16 34° W 04:24:58 63° NNW 04:44:34 10° NE visible
24 Apr 10.9 01:05:01 17° E 01:05:01 17° E 01:08:23 10° E visible
24 Apr 9.1 03:09:47 81° WSW 03:10:42 87° NW 03:29:30 10° NE visible
24 Apr 10.5 05:14:34 11° W 05:28:21 39° NNW 05:46:19 10° NE visible
25 Apr 9.9 02:02:15 45° E 02:02:15 45° E 02:13:37 10° ENE visible
25 Apr 9.6 04:07:01 36° W 04:13:10 53° NNW 04:31:53 10° NE visible
26 Apr 11.0 00:54:40 15° E 00:54:40 15° E 00:56:50 10° ENE visible
26 Apr 9.2 02:59:26 73° NNW 02:59:26 73° NNW 03:16:53 10° NE visible
26 Apr 10.5 05:04:12 11° W 05:16:48 33° NNW 05:33:40 10° NNE visible
